Weather History for Bentonville, AR

Change the Weather History Date:

Friday, December 23, 2011

  Actual Average Record
Temperature  
Mean Temperature 34 °F -  
Max Temperature 39 °F 44 °F 68 °F (1964)
Min Temperature 28 °F 23 °F -14 °F (1989)
Degree Days  
Heating Degree Days 32    
Moisture  
Dew Point 27 °F    
Average Humidity 76    
Maximum Humidity 87    
Minimum Humidity 56    
Precipitation  
Precipitation 0.00 in - - ()
Sea Level Pressure  
Sea Level Pressure 30.36 in    
Wind  
Wind Speed 6 mph (North)    
Max Wind Speed 10 mph    
Max Gust Speed -    
Visibility 10 miles    
Events      
Averages and records for this station are not official NWS values.
T = Trace of Precipitation, MM = Missing Value Source: NWS Daily Summary

Daily Weather History Graph

Daily Weather History Graph

Search for Another Location

Airport:

Trip Planner

Search our weather history database for the weather conditions in past years. The results will help you decide how hot, cold, wet, or windy it might be!

Date:

Astronomy

Dec. 23, 2011 Rise Set
Actual Time 7:25 AM CST 5:06 PM CST
Civil Twilight 6:56 AM CST 5:35 PM CST
Nautical Twilight 6:24 AM CST 6:07 PM CST
Astronomical Twilight 5:53 AM CST 6:38 PM CST
Moon 6:15 AM CST (12/23) 4:16 PM CST (12/23)
Length of Visible Light 10h 38m
Length of Day
9h 40m
Waning Crescent, 1% of the Moon is Illuminated
Dec 23
Waning Crescent
Dec 24
New
Jan 1
First Quarter
Jan 9
Full
Jan 16
Last Quarter

Hourly Weather History & Observations

Time (CST) Temp. Windchill Dew Point Humidity Pressure Visibility Wind Dir Wind Speed Gust Speed Precip Events Conditions
12:15 AM 33.8 °F 27.0 °F 28.4 °F 81% 30.30 in 8.0 mi NNE 8.1 mph - N/A   Overcast
12:35 AM 33.8 °F 28.6 °F 30.2 °F 87% 30.30 in 8.0 mi NNE 5.8 mph - N/A   Overcast
12:55 AM 33.8 °F 27.0 °F 30.2 °F 87% 30.29 in 8.0 mi North 8.1 mph - N/A   Overcast
1:15 AM 33.8 °F 25.8 °F 30.2 °F 87% 30.29 in 8.0 mi North 10.4 mph - N/A   Overcast
1:35 AM 33.8 °F 27.0 °F 28.4 °F 81% 30.30 in 10.0 mi North 8.1 mph - N/A   Overcast
1:55 AM 33.8 °F 27.0 °F 28.4 °F 81% 30.31 in 10.0 mi NNE 8.1 mph - N/A   Overcast
2:35 AM 33.8 °F 27.7 °F 28.4 °F 81% 30.33 in 10.0 mi North 6.9 mph - N/A   Overcast
2:55 AM 33.8 °F 26.4 °F 28.4 °F 81% 30.33 in 10.0 mi NNE 9.2 mph - N/A   Overcast
3:15 AM 33.8 °F 25.8 °F 28.4 °F 81% 30.34 in 10.0 mi North 10.4 mph - N/A   Overcast
3:35 AM 33.8 °F 27.7 °F 28.4 °F 81% 30.34 in 10.0 mi North 6.9 mph - N/A   Overcast
3:55 AM 33.8 °F 27.7 °F 28.4 °F 81% 30.34 in 10.0 mi NNW 6.9 mph - N/A   Overcast
4:15 AM 32.0 °F 25.6 °F 28.4 °F 87% 30.34 in 10.0 mi North 6.9 mph - N/A   Overcast
4:35 AM 32.0 °F 26.4 °F 28.4 °F 87% 30.34 in 10.0 mi NNE 5.8 mph - N/A   Overcast
4:55 AM 32.0 °F 24.8 °F 28.4 °F 87% 30.35 in 9.0 mi North 8.1 mph - N/A   Overcast
5:15 AM 32.0 °F 25.6 °F 28.4 °F 87% 30.35 in 10.0 mi North 6.9 mph - N/A   Overcast
5:35 AM 32.0 °F 26.4 °F 28.4 °F 87% 30.36 in 10.0 mi NNE 5.8 mph - N/A   Overcast
5:55 AM 32.0 °F 25.6 °F 26.6 °F 80% 30.36 in 10.0 mi North 6.9 mph - N/A   Overcast
6:15 AM 32.0 °F 24.8 °F 28.4 °F 87% 30.36 in 10.0 mi NNE 8.1 mph - N/A   Overcast
6:35 AM 32.0 °F 25.6 °F 26.6 °F 80% 30.37 in 10.0 mi NNE 6.9 mph - N/A   Overcast
6:55 AM 32.0 °F 26.4 °F 26.6 °F 80% 30.37 in 10.0 mi NNE 5.8 mph - N/A   Overcast
7:55 AM 30.2 °F 24.3 °F 26.6 °F 86% 30.39 in 10.0 mi North 5.8 mph - N/A   Overcast
8:15 AM 30.2 °F - 26.6 °F 86% 30.40 in 10.0 mi Calm Calm - N/A   Overcast
8:35 AM 30.2 °F - 26.6 °F 86% 30.40 in 10.0 mi Calm Calm - N/A   Overcast
8:55 AM 30.2 °F 25.4 °F 26.6 °F 86% 30.40 in 10.0 mi ENE 4.6 mph - N/A   Overcast
9:15 AM 32.0 °F 27.5 °F 26.6 °F 80% 30.40 in 10.0 mi North 4.6 mph - N/A   Overcast
9:35 AM 32.0 °F - 26.6 °F 80% 30.42 in 10.0 mi Calm Calm - N/A   Overcast
9:55 AM 32.0 °F 27.5 °F 26.6 °F 80% 30.43 in 10.0 mi NNW 4.6 mph - N/A   Overcast
10:15 AM 32.0 °F 26.4 °F 26.6 °F 80% 30.43 in 10.0 mi North 5.8 mph - N/A   Overcast
10:35 AM 32.0 °F 25.6 °F 26.6 °F 80% 30.44 in 10.0 mi North 6.9 mph - N/A   Overcast
10:55 AM 32.0 °F 27.5 °F 26.6 °F 80% 30.43 in 10.0 mi North 4.6 mph - N/A   Overcast
11:55 AM 33.8 °F 28.6 °F 26.6 °F 75% 30.41 in 10.0 mi North 5.8 mph - N/A   Overcast
12:15 PM 33.8 °F - 24.8 °F 70% 30.40 in 10.0 mi Calm Calm - N/A   Overcast
12:55 PM 35.6 °F - 26.6 °F 70% 30.38 in 10.0 mi Calm Calm - N/A   Mostly Cloudy
1:15 PM 35.6 °F 32.8 °F 26.6 °F 70% 30.37 in 10.0 mi North 3.5 mph - N/A   Partly Cloudy
1:35 PM 37.4 °F - 24.8 °F 60% 30.36 in 10.0 mi Calm Calm - N/A   Clear
1:55 PM 37.4 °F - 26.6 °F 65% 30.36 in 10.0 mi Calm Calm - N/A   Clear
2:15 PM 39.2 °F 35.0 °F 24.8 °F 56% 30.35 in 10.0 mi SE 5.8 mph - N/A   Clear
2:35 PM 39.2 °F - 26.6 °F 61% 30.35 in 10.0 mi Calm Calm - N/A   Clear
2:55 PM 39.2 °F - 26.6 °F 61% 30.35 in 10.0 mi Calm Calm - N/A   Clear
3:15 PM 39.2 °F 35.9 °F 26.6 °F 61% 30.35 in 10.0 mi SSW 4.6 mph - N/A   Clear
3:35 PM 39.2 °F 37.0 °F 26.6 °F 61% 30.35 in 10.0 mi SSW 3.5 mph - N/A   Clear
3:55 PM 39.2 °F 37.0 °F 26.6 °F 61% 30.36 in 10.0 mi WSW 3.5 mph - N/A   Clear
4:15 PM 39.2 °F 37.0 °F 24.8 °F 56% 30.36 in 10.0 mi WSW 3.5 mph - N/A   Clear
4:35 PM 39.2 °F 37.0 °F 26.6 °F 61% 30.36 in 10.0 mi West 3.5 mph - N/A   Clear
4:55 PM 37.4 °F - 26.6 °F 65% 30.36 in 10.0 mi Calm Calm - N/A   Clear
5:15 PM 37.4 °F 34.9 °F 26.6 °F 65% 30.36 in 10.0 mi SW 3.5 mph - N/A   Clear
5:35 PM 35.6 °F 32.8 °F 26.6 °F 70% 30.36 in 10.0 mi SSW 3.5 mph - N/A   Clear
5:55 PM 35.6 °F - 26.6 °F 70% 30.37 in 10.0 mi Calm Calm - N/A   Clear
6:15 PM 33.8 °F - 26.6 °F 75% 30.37 in 10.0 mi Calm Calm - N/A   Clear
6:35 PM 32.0 °F - 26.6 °F 80% 30.37 in 10.0 mi Calm Calm - N/A   Clear
6:55 PM 32.0 °F - 26.6 °F 80% 30.38 in 10.0 mi Calm Calm - N/A   Clear
7:15 PM 33.8 °F 30.8 °F 24.8 °F 70% 30.38 in 10.0 mi WNW 3.5 mph - N/A   Clear
7:35 PM 32.0 °F - 24.8 °F 75% 30.38 in 10.0 mi Calm Calm - N/A   Clear
8:15 PM 28.4 °F - 21.2 °F 74% 30.38 in 10.0 mi Calm Calm - N/A   Clear
8:35 PM 28.4 °F - 21.2 °F 74% 30.38 in 10.0 mi Calm Calm - N/A   Clear
8:55 PM 28.4 °F 24.6 °F 21.2 °F 74% 30.38 in 10.0 mi SSW 3.5 mph - N/A   Clear
9:15 PM 26.6 °F - 24.8 °F 93% 30.38 in 10.0 mi Calm Calm - N/A   Clear
9:35 PM 28.4 °F - 23.0 °F 80% 30.38 in 10.0 mi Calm Calm - N/A   Clear
9:55 PM 26.6 °F - 21.2 °F 80% 30.38 in 10.0 mi Calm Calm - N/A   Clear
10:15 PM 24.8 °F - 21.2 °F 86% 30.38 in 10.0 mi Calm Calm - N/A   Clear
10:35 PM 26.6 °F 22.6 °F 23.0 °F 86% 30.38 in 10.0 mi SSW 3.5 mph - N/A   Clear
10:55 PM 24.8 °F - 21.2 °F 86% 30.39 in 10.0 mi Calm Calm - N/A   Clear
11:15 PM 26.6 °F - 23.0 °F 86% 30.39 in 10.0 mi Calm Calm - N/A   Clear
11:35 PM 24.8 °F - 21.2 °F 86% 30.39 in 10.0 mi Calm Calm - N/A   Clear
11:55 PM 26.6 °F - 23.0 °F 86% 30.38 in 10.0 mi Calm Calm - N/A   Clear